Starlink 31810

operational
NORAD ID: 59799 Int'l Des: 2024-093 Owner: SPXS Country: US Constellation: starlink
LEOCIRCULAR

关于 Starlink 31810

正在加载描述...

实时位置

正在加载3D地球...

即将过境

高度历史

Altitude vs Time

uPlot chart will show altitude changes over time

两行轨道根数

1 59799U 24093T 25259.89540132 -.00001289 00000-0 -37312-4 0 9994
2 59799 43.0036 110.5812 0002412 258.5014 101.5567 15.27573686 76119
Epoch: Sep 16, 2025 • Age: 36 hours

当前状态

高度 485.9 km
速度 7.63 km/s
星下点 34.62°N, 4.45°E
发射日期 May 18, 2024
运行时间 1.3 years
类型 internet

技术详情

分类 Payload
质量 730.00 kg
干质量 700.00 kg
总质量 730.00 kg
长度 0.30 m
直径 4.10 m
跨度 29.00 m
形状 Box + pan
制造商 SPXS
平台类型 Starlink V2M
阶段状态 In Orbit
所有者/国家 SPXS/US

大型星座

Loading constellations...